Wind_Gust
14 18 16 18 17 19 20 17 18 23 25 26 26 25 31 24 31 28 23 12 17 18 15 9 9 8 13 23 26 26 24 21 20 11 13 20 13 18 15 23 23 24 25 23 20 20 21 17 18 20 19 21 21 20 20 20 20 20 19 18 18 18 17 16 15 13 15 15 14 14 14 14 14 13 14 14 13 12 12 14 15 17 18 19 19 18 18 18 17 18 19 19 19 18 18 18 17
19 16 16 14 18 19 20 20 27 21 26 29 27 25 26 33 20 22 19 23 17 14 9 11 11 15 9 23 22 27 30 27 22 26 23 21 20 16 18 22 21 24 22 22 20 20 20 20 17 18 21 22 21 21 21 20 20 20 20 18 18 18 17 16 15 14 16 15 14 15 15 15 15 15 14 13 12 12 11 14 17 18 19 19 19 19 18 18 18 18 19 18 19 18 18 17 17
19 17 17 17 19 21 23 21 27 21 25 27 28 31 26 31 26 14 16 17 15 14 9 10 9 12 14 12 19 20 20 20 23 21 23 19 20 16 18 21 22 23 23 20 21 20 20 19 15 19 22 21 20 21 21 21 20 20 19 18 17 18 17 16 15 15 15 14 15 15 14 15 15 15 14 14 14 13 13 14 18 19 19 20 18 18 18 18 18 18 18 18 18 18 18 17 15
19 21 21 15 22 21 21 21 24 25 26 26 28 27 21 21 18 16 22 13 8 7 10 12 18 21 15 21 25 24 21 21 21 20 24 19 18 21 24 23 20 22 21 21 20 21 20 18 16 18 22 21 21 21 21 21 21 20 19 18 18 18 17 16 15 14 15 15 15 16 14 14 14 14 15 16 15 15 16 16 18 19 20 19 18 18 17 17 16 17 17 17 17 18 17 16 15
20 19 18 21 21 22 24 24 24 26 28 24 25 27 15 16 15 14 13 10 10 11 14 14 19 16 24 20 19 21 22 21 18 17 24 20 21 22 24 21 20 20 21 21 20 21 21 18 16 18 19 22 21 21 21 21 21 20 20 19 18 18 17 16 15 15 16 16 16 15 15 15 14 15 16 17 16 17 17 18 18 18 18 16 14 11 11 13 15 16 16 17 17 17 17 15 14
20 20 16 18 24 21 23 24 24 27 26 25 23 22 14 15 14 10 11 10 11 10 14 14 18 20 23 24 24 22 9 17 17 17 23 22 22 23 23 19 21 21 19 18 21 22 21 15 16 17 19 22 22 21 21 21 21 20 20 19 19 19 17 16 15 16 17 16 15 14 14 14 15 15 16 17 17 18 19 19 17 16 17 17 15 15 14 13 12 13 15 16 17 17 16 14 13
22 19 20 19 26 24 24 23 26 27 26 24 28 32 18 15 9 11 11 10 11 15 7 13 20 24 23 25 27 23 18 15 18 20 19 22 21 21 22 22 20 21 19 19 21 23 24 14 15 16 18 20 22 21 21 20 21 20 20 20 19 19 18 17 17 17 16 14 13 13 13 14 15 16 16 18 18 19 19 18 17 16 14 14 14 13 13 13 12 12 14 15 16 16 14 13 11
18 23 17 21 22 24 25 26 27 27 27 28 24 23 13 11 10 10 11 11 18 21 20 10 17 13 20 18 25 16 19 21 23 22 23 22 20 18 19 20 21 21 22 23 21 21 24 16 16 17 18 19 21 21 21 21 21 21 20 19 19 19 19 18 18 17 15 16 13 13 14 15 15 15 18 18 19 19 18 18 17 15 14 14 13 14 14 14 13 13 15 15 15 14 14 13 12
19 22 17 25 24 25 24 25 25 25 30 28 23 19 10 10 8 10 10 14 15 17 24 15 13 25 26 25 24 19 23 19 23 22 20 19 18 17 16 20 23 22 21 23 24 24 24 16 17 17 19 20 21 22 21 21 21 20 20 19 19 18 18 18 18 17 16 14 12 14 16 16 16 18 18 19 18 18 17 17 15 15 14 13 14 14 15 14 15 15 15 15 14 14 13 12 11
21 21 21 25 18 24 24 25 26 23 28 26 22 19 17 18 16 17 16 18 13 9 17 19 17 17 27 25 23 16 19 19 19 19 19 19 16 13 15 17 20 21 22 23 23 25 23 21 16 17 18 20 21 20 20 18 18 19 19 18 18 18 18 17 15 15 16 14 12 14 15 16 16 17 18 19 18 16 16 15 14 14 13 13 14 15 15 16 15 15 14 14 14 14 13 12 10
24 23 20 23 23 23 24 24 24 24 23 24 15 13 10 9 13 13 17 15 19 17 16 12 23 27 22 22 23 16 15 17 19 19 17 18 15 15 16 16 19 21 25 21 21 24 26 22 21 16 17 18 17 17 17 17 17 17 16 16 16 17 17 16 15 16 14 13 13 15 15 16 16 17 18 19 18 17 16 15 13 13 11 12 13 14 15 15 14 14 14 13 14 13 13 11 9
23 22 22 23 23 22 22 23 22 23 21 16 11 12 18 19 12 15 15 23 18 20 18 12 22 31 24 22 17 17 12 17 16 16 17 16 17 17 17 20 20 21 22 22 23 23 25 23 23 21 17 17 15 15 15 16 17 16 15 17 15 15 15 14 16 15 13 14 13 14 15 15 16 17 17 16 16 16 15 14 13 12 11 11 12 13 14 14 14 13 13 13 13 13 13 12 8
25 20 22 23 23 23 23 24 24 20 14 15 23 20 15 9 12 15 15 19 15 18 18 24 16 22 22 20 21 16 15 16 16 16 15 17 17 18 17 19 21 22 22 21 23 24 24 23 24 24 19 17 13 13 14 15 16 14 15 16 14 16 16 16 17 16 15 13 13 16 15 14 14 16 16 15 15 15 15 14 12 12 11 10 12 12 14 14 14 14 13 13 13 13 13 11 9
25 21 22 25 19 25 27 24 21 20 21 26 14 20 14 15 15 18 19 19 19 20 19 14 17 29 24 25 18 17 17 17 20 18 18 15 17 18 17 21 20 21 21 21 23 25 24 22 23 22 22 20 19 15 14 14 15 14 13 13 13 14 13 14 14 13 13 13 15 15 15 14 14 14 15 14 14 14 13 13 12 11 10 11 11 12 13 14 14 14 13 13 13 12 12 11 9
24 19 22 23 25 21 22 27 18 16 25 16 23 15 12 15 14 17 17 18 20 22 21 18 36 19 24 18 19 21 22 20 19 16 16 17 18 18 17 18 19 19 19 21 23 23 22 22 23 22 21 21 21 17 17 17 13 13 11 11 10 11 11 11 11 12 14 14 14 14 15 15 14 14 14 13 13 14 14 12 12 10 10 10 10 11 13 14 14 14 14 13 13 13 12 11 9
22 22 24 22 23 23 22 22 21 25 16 11 17 18 15 15 13 16 21 18 21 20 13 20 20 17 24 18 23 26 25 22 19 18 18 18 16 17 20 20 19 17 17 20 21 21 22 22 21 21 21 19 19 16 15 16 14 13 11 9 10 11 11 10 9 10 14 15 15 15 15 17 15 16 15 16 14 14 14 14 12 10 9 9 10 11 13 14 15 15 14 14 14 13 13 11 9
19 20 21 21 24 21 20 20 17 29 15 16 14 15 22 17 15 22 20 11 14 17 18 31 26 31 25 24 27 30 26 21 18 18 18 19 18 19 18 18 20 18 17 15 13 17 21 20 19 19 18 18 17 16 15 16 17 14 12 11 11 11 10 10 8 10 13 13 13 12 12 16 16 16 18 17 16 16 13 12 14 12 9 9 9 11 12 14 15 15 14 15 15 15 13 11 8
19 22 22 22 23 23 21 21 16 13 18 13 12 13 16 17 18 19 12 17 13 16 19 27 29 28 24 25 29 27 26 22 19 19 19 19 17 18 18 18 19 20 16 16 13 13 16 16 19 18 20 20 18 16 17 17 18 17 16 15 14 12 9 10 10 13 13 15 11 14 14 15 15 17 15 14 16 16 15 14 14 12 9 9 8 10 13 14 15 15 15 16 16 15 16 13 9
21 22 23 24 22 24 21 13 19 26 16 10 17 12 11 14 21 21 23 19 18 19 17 23 25 25 25 21 24 25 23 19 17 16 19 18 18 17 19 17 17 21 17 12 15 13 15 17 17 18 18 20 19 14 16 16 17 15 15 14 13 10 12 14 13 13 15 16 17 16 15 13 15 14 14 16 14 14 16 14 14 11 11 10 10 11 12 14 15 15 16 16 17 18 17 12 11
22 23 24 26 23 23 20 11 9 17 13 10 11 17 16 12 20 25 25 21 16 19 23 21 22 24 24 20 20 20 20 19 17 16 16 15 15 16 16 17 16 16 16 15 14 16 15 14 15 13 15 17 16 17 14 11 14 14 13 12 8 8 10 12 12 14 13 14 16 15 13 12 12 11 13 18 14 17 17 13 14 13 11 11 11 11 12 13 15 15 15 15 13 13 14 16 14
21 27 26 23 21 24 16 14 10 10 11 8 11 13 13 12 10 17 21 19 16 15 18 16 23 24 28 22 20 20 20 18 16 14 14 13 12 13 11 12 14 16 18 13 14 13 15 14 14 12 14 17 13 14 8 10 9 14 13 10 6 8 8 10 8 11 11 11 13 12 17 10 15 18 17 12 14 16 16 16 14 15 15 13 13 12 14 17 15 15 15 14 14 16 16 15 13
18 24 25 28 18 16 18 15 16 16 9 11 9 16 19 21 7 18 18 17 21 24 23 21 26 29 27 25 19 18 16 17 16 15 14 12 11 10 10 14 14 13 14 18 17 14 14 13 13 10 15 12 13 9 9 7 13 15 13 8 8 9 9 9 10 9 14 16 13 10 18 14 11 13 13 17 14 11 14 15 16 14 15 15 16 14 15 15 15 16 15 17 16 15 16 12 11
26 20 23 26 25 18 15 16 9 10 12 20 12 15 13 11 15 17 16 17 24 15 25 30 28 22 20 19 18 16 15 14 15 15 13 10 10 9 9 11 12 14 16 19 17 18 19 16 11 16 11 11 10 12 15 12 13 15 10 10 7 8 7 7 8 10 6 12 14 13 12 13 10 10 13 14 20 13 9 13 15 14 14 14 15 16 14 16 15 15 13 14 14 14 14 12 11
22 25 18 23 22 20 16 12 12 14 19 17 20 14 16 15 21 21 22 18 28 30 28 28 29 28 27 22 13 15 16 14 13 11 11 10 9 7 10 11 7 14 20 18 16 16 14 12 13 18 15 16 16 14 12 9 8 9 9 8 10 8 8 7 11 12 7 12 12 11 8 8 5 5 7 10 14 14 9 10 11 12 13 14 14 15 14 13 14 13 13 13 16 13 12 11 10
25 30 21 18 22 22 18 14 10 14 18 19 10 13 19 16 23 20 22 22 30 28 26 27 28 28 24 20 18 13 13 13 12 11 9 9 9 9 9 13 13 24 24 19 17 13 10 11 12 15 15 15 12 11 13 8 10 11 12 9 8 9 8 10 11 8 9 8 11 13 9 9 9 7 8 8 5 10 15 16 16 10 12 12 14 14 14 14 12 10 11 13 11 12 11 9 12
26 23 21 23 17 15 20 16 13 16 18 16 18 19 18 21 17 25 18 14 28 30 25 21 23 23 20 19 14 13 12 12 11 12 10 9 9 10 8 15 16 25 22 19 15 16 13 12 10 9 12 14 13 9 9 10 10 11 10 10 10 9 8 10 6 11 11 10 11 10 10 7 9 6 5 8 7 3 6 13 14 15 10 11 13 14 11 12 10 9 9 12 15 12 13 11 7
20 26 23 23 20 18 16 20 19 18 20 20 21 20 20 18 17 27 17 18 29 25 24 25 26 23 20 20 15 11 12 11 11 10 10 9 10 11 11 17 19 22 22 15 16 15 11 11 9 9 7 7 9 10 11 11 10 10 10 10 9 11 11 10 8 9 12 9 8 10 10 7 4 6 5 5 6 6 5 6 9 17 21 13 11 14 11 8 11 11 9 9 12 11 8 10 9
20 13 18 24 23 19 18 19 20 21 26 20 22 21 19 16 23 22 20 19 21 22 24 26 26 22 22 19 17 14 12 10 13 10 11 10 10 11 13 16 19 18 18 15 17 17 14 10 11 10 9 9 10 9 9 10 10 9 10 12 12 9 10 10 11 10 13 10 11 12 7 6 5 6 5 7 7 7 5 4 3 6 17 18 22 14 9 6 9 12 11 9 8 7 7 7 7
21 18 21 19 23 30 21 21 23 23 26 19 19 20 24 21 27 20 24 21 20 23 26 27 23 23 23 20 17 16 15 12 12 11 10 10 12 13 15 17 19 17 15 14 15 15 14 14 12 9 10 8 8 11 10 7 7 10 11 10 8 10 11 10 13 15 14 9 10 12 9 10 7 7 8 8 7 6 6 5 4 5 7 19 23 25 19 7 7 9 8 9 8 7 8 9 14
21 21 19 20 23 28 23 19 22 22 23 23 23 30 24 24 26 29 25 22 22 23 24 25 25 22 21 17 19 15 15 14 12 14 13 16 13 13 17 16 16 14 15 15 13 13 12 12 12 12 13 15 14 12 12 10 9 8 8 8 8 9 9 11 14 15 9 7 7 8 6 10 9 7 7 7 7 7 7 5 6 6 5 12 18 23 22 13 8 9 8 9 7 6 7 6 7
29 22 21 26 24 29 26 28 22 23 22 25 25 26 23 22 31 28 21 21 22 21 19 25 23 16 24 22 20 18 14 13 15 16 14 18 15 15 17 15 15 13 12 12 12 12 11 12 11 9 9 11 13 11 11 10 8 8 8 8 8 9 8 7 9 10 11 7 8 6 9 10 7 7 6 5 6 6 8 8 5 7 5 7 20 16 16 25 19 8 10 12 9 7 10 9 10
25 27 29 25 27 22 28 29 27 30 29 25 26 30 23 29 28 25 20 20 18 20 21 26 24 16 12 16 16 20 16 16 17 16 15 19 16 16 16 16 14 13 12 11 12 11 13 11 10 10 9 8 8 8 6 6 7 6 5 6 7 6 6 7 7 11 12 9 7 7 7 7 7 7 6 6 6 6 7 9 8 5 6 8 11 14 19 19 21 19 11 7 5 10 11 10 8
28 28 20 26 26 26 26 32 28 32 30 24 28 30 27 28 27 24 20 20 18 19 22 29 28 22 16 20 17 17 18 17 18 17 18 17 16 14 15 15 15 13 11 11 10 9 12 12 8 9 10 8 8 7 7 7 8 8 5 4 4 5 8 9 13 12 9 10 9 9 8 9 9 8 8 9 8 6 6 7 10 8 6 11 8 8 6 10 14 18 12 7 8 9 15 12 8
28 26 27 22 25 28 29 31 30 32 28 28 30 38 23 22 29 26 25 22 21 20 26 32 28 21 19 19 19 18 20 17 18 15 16 17 16 15 17 16 15 12 12 12 10 10 12 10 12 9 8 7 7 6 6 8 7 7 9 10 7 9 9 11 14 12 13 13 8 9 9 8 10 10 9 9 8 8 7 6 7 8 7 6 8 8 8 5 7 10 14 10 12 13 14 6 7
24 24 25 27 24 30 26 35 31 32 30 25 31 33 21 18 19 24 23 23 22 20 27 30 28 23 15 19 20 24 23 21 17 14 16 18 14 16 18 16 15 13 11 10 10 10 9 9 12 10 7 7 5 3 5 6 6 6 5 7 8 6 5 6 7 8 8 11 9 10 7 7 10 10 10 9 8 9 9 9 7 8 7 8 7 8 6 6 5 5 15 17 12 16 11 11 13
24 24 25 26 24 30 35 30 29 31 31 27 30 33 25 19 19 19 22 22 23 24 22 30 25 19 20 21 22 23 19 15 14 15 15 17 16 16 17 17 14 12 12 10 9 8 8 9 10 11 10 7 5 5 5 5 7 7 8 8 7 8 7 6 9 8 12 11 13 10 9 9 11 10 10 10 9 9 8 8 8 8 9 8 8 10 10 8 7 6 7 15 19 13 16 14 13
21 22 23 29 27 25 25 29 28 31 32 29 28 28 24 21 19 16 20 19 21 24 19 30 25 28 22 12 27 17 19 18 12 18 18 18 18 19 17 18 16 13 12 13 13 12 12 14 12 12 10 7 6 7 6 6 8 5 5 7 6 6 11 11 10 12 12 12 12 11 9 8 9 9 8 10 11 10 9 8 7 8 9 9 9 9 9 9 8 8 6 12 15 18 9 8 11
28 24 23 28 28 26 26 30 33 34 32 28 27 27 25 21 19 18 17 15 14 15 14 19 28 29 28 27 23 23 15 18 17 20 20 18 19 17 17 15 14 15 15 15 15 14 13 13 13 11 9 8 8 8 7 6 7 10 10 9 7 6 7 7 9 8 9 10 10 11 11 9 9 8 10 10 10 11 11 11 10 9 10 10 10 10 8 9 10 8 8 9 11 12 14 6 14
30 34 26 27 27 24 22 24 32 32 31 27 28 31 26 22 17 17 19 19 14 12 16 16 28 32 26 24 22 21 19 20 19 19 17 19 19 20 20 17 16 15 15 15 13 13 12 12 12 10 10 9 9 10 10 9 8 10 10 10 9 11 7 5 6 8 11 10 10 11 11 11 11 11 12 13 16 15 13 12 12 11 10 11 11 12 10 10 11 13 12 13 11 10 13 7 9
27 25 30 30 23 28 29 28 31 29 33 25 31 30 26 21 17 17 17 16 16 30 33 35 26 27 27 25 22 23 20 20 18 18 18 20 20 20 18 18 17 17 16 15 13 13 13 13 12 10 9 9 9 9 7 8 8 7 6 8 8 9 9 7 6 4 7 9 11 12 11 11 12 13 13 14 14 12 13 14 11 12 12 12 12 11 11 10 13 13 13 12 11 11 15 10 8
26 25 26 27 28 30 29 23 24 24 30 27 29 28 25 22 21 21 18 17 18 28 30 29 28 27 28 27 25 21 20 18 19 18 19 18 18 18 18 18 19 18 18 17 16 14 12 12 11 10 10 10 10 8 8 7 6 6 5 7 7 7 8 7 5 4 6 7 9 11 12 12 12 12 14 16 15 14 14 14 14 14 13 12 12 11 11 12 14 14 14 12 13 12 8 9 7
26 25 26 23 26 25 28 25 26 30 34 36 33 32 27 23 21 23 24 21 20 22 20 25 24 22 22 23 22 21 21 19 19 19 19 18 17 16 17 17 17 16 17 15 16 16 13 13 12 10 10 9 10 9 8 7 7 7 7 8 9 9 8 6 5 4 6 9 8 7 9 12 13 14 14 16 14 15 15 16 16 16 14 13 13 12 11 12 13 14 14 13 14 12 12 8 10
24 31 28 29 26 27 27 27 26 28 35 33 33 30 26 24 27 26 25 23 25 22 20 18 19 20 19 20 18 19 19 19 19 19 19 18 17 17 17 17 17 16 15 13 13 16 17 15 13 12 12 11 9 8 7 6 7 6 8 8 9 10 11 9 6 6 7 7 5 6 7 9 12 13 14 14 13 15 15 16 16 16 15 13 12 12 12 14 14 13 13 14 15 14 12 11 11
31 20 28 27 28 27 26 30 26 28 23 27 28 32 27 30 31 29 29 26 23 20 17 16 16 17 17 17 18 17 18 17 17 18 19 17 17 16 17 16 16 17 13 14 14 14 15 15 14 14 13 12 12 12 13 11 9 9 8 9 10 12 11 11 7 7 7 6 6 6 6 7 10 13 13 14 13 15 15 15 16 14 14 14 12 14 15 13 12 12 12 15 14 14 16 18 16
26 21 24 30 29 29 28 29 30 27 24 32 31 30 31 28 26 30 34 30 25 21 18 17 16 16 16 18 18 19 18 17 16 18 18 17 17 16 15 16 14 15 14 14 14 12 12 13 14 13 15 13 15 14 15 15 12 11 12 11 11 11 12 10 10 9 4 5 7 6 7 9 8 10 12 12 13 14 13 14 15 17 17 16 13 13 12 14 17 18 17 16 18 18 18 16 16
25 24 22 27 28 28 26 32 30 27 27 27 28 32 36 29 27 32 34 30 28 24 20 19 16 16 16 18 17 17 16 16 17 17 17 17 15 16 14 15 15 15 13 13 13 13 13 14 15 15 17 17 16 17 16 16 15 14 13 12 13 14 13 11 8 5 6 6 8 7 7 7 9 9 11 13 12 14 14 16 16 16 14 14 12 16 16 16 16 16 18 17 16 17 16 15 18
20 28 25 27 25 23 25 25 30 25 31 31 25 29 33 31 29 30 35 37 29 27 22 20 17 17 16 16 16 15 16 15 17 16 16 16 14 14 14 15 15 14 13 14 14 14 14 16 15 15 14 17 17 17 17 17 16 15 15 16 16 16 16 14 11 7 6 6 7 9 9 9 7 7 11 14 14 14 13 14 14 15 14 14 14 16 16 18 16 16 16 17 17 18 17 17 16
27 32 29 25 24 22 25 26 26 30 32 31 30 31 33 36 25 32 30 25 31 30 26 23 20 19 17 15 16 15 14 14 14 15 15 14 14 14 14 15 15 15 14 16 14 15 15 15 16 15 15 15 15 15 15 17 17 17 17 18 18 17 17 17 16 14 11 9 9 10 5 9 9 11 9 11 16 12 15 12 11 13 14 14 16 15 15 17 17 16 16 16 16 17 15 17 17
33 30 30 30 32 28 30 30 37 35 35 30 31 29 33 33 25 21 32 28 31 27 27 25 22 20 18 17 17 15 14 13 14 15 14 13 14 14 13 14 14 14 16 14 16 15 15 15 15 15 14 14 13 13 15 16 17 16 18 19 18 18 17 17 17 16 12 13 11 11 10 9 10 10 11 12 12 13 13 12 12 13 14 16 12 14 16 16 13 15 16 16 16 15 18 17 17
34 36 32 32 35 34 28 34 30 32 34 28 32 28 26 20 21 29 29 30 29 29 26 24 22 21 18 17 15 14 14 14 14 14 15 14 14 14 13 13 13 13 14 15 14 14 13 14 15 14 14 14 15 15 15 15 15 16 16 18 18 20 20 18 18 17 15 13 12 11 11 11 9 9 14 13 8 12 10 9 11 14 15 13 12 15 15 15 14 15 12 16 14 17 15 16 18
36 29 34 30 32 39 28 33 33 31 29 30 24 37 17 19 14 18 29 28 29 28 28 24 22 21 19 16 16 15 14 13 14 14 14 14 13 12 13 13 13 14 14 14 14 15 13 13 15 15 15 15 15 15 14 14 14 14 15 15 16 18 18 19 20 19 16 16 14 8 7 11 8 9 13 12 8 9 9 7 12 14 12 12 12 13 16 18 16 16 17 18 18 17 18 19 19
32 32 28 32 36 26 33 22 25 26 28 26 28 17 10 19 18 22 26 27 27 27 26 24 21 20 19 16 14 14 13 13 13 13 14 13 13 12 13 13 13 13 13 14 13 11 12 13 12 12 12 14 15 16 15 15 14 14 12 14 16 16 16 17 17 18 18 15 14 11 9 10 10 11 12 11 11 8 6 9 12 13 12 10 12 16 17 17 16 16 18 19 18 17 19 20 19
34 36 41 35 26 31 15 16 23 8 11 29 23 19 21 21 15 21 25 26 25 25 25 23 22 20 18 16 14 13 13 13 13 13 13 13 13 13 12 13 14 14 14 13 14 13 12 12 11 14 11 13 15 14 15 14 14 15 15 16 16 16 15 15 16 16 18 18 15 13 9 8 13 12 11 9 11 11 8 11 9 9 11 12 12 14 17 17 15 16 16 16 18 15 16 18 19
31 42 34 26 28 29 26 25 21 24 24 25 20 24 20 23 18 19 23 24 24 24 25 24 23 21 18 16 14 13 13 13 13 13 13 13 12 13 12 14 13 14 13 14 9 7 13 12 12 19 9 15 17 16 16 17 18 16 16 17 18 20 19 18 17 17 16 17 19 16 12 11 10 10 10 14 14 14 12 13 12 11 10 10 11 13 14 17 15 17 17 19 17 14 15 15 15
30 31 22 42 31 31 26 22 24 27 27 28 22 23 23 24 20 23 22 26 25 24 24 24 23 21 20 17 16 13 12 12 13 12 13 13 13 13 13 12 14 13 12 10 17 17 15 15 16 16 20 18 19 16 16 17 16 15 15 17 18 19 20 21 20 20 19 19 19 20 16 14 12 12 12 11 15 15 13 13 12 12 10 12 12 14 16 14 12 18 18 19 17 15 16 17 14
29 22 33 30 25 29 30 30 20 26 23 23 23 20 20 21 27 30 30 28 27 25 22 21 22 21 20 19 15 14 12 12 12 12 13 13 12 12 13 12 13 14 16 21 18 16 17 14 15 16 19 22 21 18 16 16 16 18 20 19 19 19 19 19 20 21 22 21 21 21 21 18 16 12 13 13 14 16 13 13 11 12 13 13 12 12 13 13 11 15 18 19 19 18 19 20 16
37 33 32 34 33 18 26 27 33 26 27 29 22 21 18 17 12 26 27 29 27 25 24 21 21 20 19 18 16 13 13 13 13 13 13 13 13 13 13 14 15 14 14 13 13 15 16 18 16 20 21 17 17 17 18 19 19 20 20 20 21 19 19 20 20 20 19 21 22 21 23 22 20 17 12 15 17 17 15 14 15 15 15 11 9 11 11 12 11 12 17 21 21 20 22 19 17
34 36 34 33 32 28 29 30 32 34 30 28 27 19 18 15 14 17 23 27 28 25 25 22 20 20 19 18 15 14 14 13 13 14 13 13 13 13 15 15 14 15 15 15 16 17 16 15 17 16 17 21 17 18 18 19 19 21 21 21 21 20 22 23 20 19 19 20 20 22 21 22 22 20 17 11 16 18 15 16 13 16 15 13 10 9 10 11 12 11 17 22 19 22 21 21 16
Wind_Speed
8 8 8 8 7 8 7 5 5 5 6 10 10 10 11 14 16 15 14 4 5 7 8 0 4 3 6 11 17 16 15 10 9 4 5 4 7 10 9 15 15 15 16 13 11 11 12 13 15 16 16 17 17 17 17 16 16 16 16 15 14 15 14 13 12 11 13 12 11 12 12 11 11 11 11 11 10 10 10 11 12 13 14 15 15 14 14 14 14 14 15 15 14 14 14 14 13
8 8 9 7 7 6 6 7 6 7 8 11 11 12 13 17 13 13 11 12 5 4 4 5 5 8 2 15 13 17 17 14 13 11 9 10 11 8 12 14 14 16 13 13 11 11 12 12 14 15 17 18 16 17 17 17 16 16 16 15 15 14 14 13 12 12 13 12 12 12 12 12 12 11 11 10 9 10 9 11 13 14 14 15 15 15 14 14 14 14 14 14 14 14 14 13 13
8 8 8 7 7 7 8 7 9 7 9 10 10 13 15 16 13 8 9 8 9 8 3 5 4 4 5 5 10 12 10 12 13 12 9 10 11 7 12 13 14 16 14 10 11 11 10 12 13 15 18 17 17 17 17 17 16 16 15 15 14 14 14 13 12 12 13 12 12 12 12 12 12 11 11 11 10 10 11 12 14 15 15 15 14 14 14 14 14 14 14 14 14 14 13 13 12
10 9 9 6 7 7 6 5 8 9 9 9 11 14 11 12 10 10 14 8 4 0 2 2 6 11 8 12 13 15 11 9 11 11 8 8 8 10 13 13 12 13 12 10 11 11 11 11 13 15 17 17 17 17 16 17 16 16 15 14 15 14 14 13 12 12 12 12 12 13 11 12 12 11 12 12 12 12 12 13 14 15 15 14 14 14 14 13 13 13 13 13 13 13 13 12 11
9 8 8 7 7 7 7 7 9 8 11 8 10 13 8 9 9 8 7 5 3 3 3 6 6 9 14 11 8 6 10 13 11 10 8 10 13 13 13 12 12 11 12 12 11 11 12 15 13 15 16 18 17 17 17 17 16 16 15 15 15 14 14 13 12 12 13 13 13 12 13 12 12 12 13 13 13 13 14 14 14 14 14 13 11 8 9 11 12 12 13 12 13 13 12 11 10
9 9 7 6 6 5 6 7 9 11 11 11 10 10 3 9 8 5 5 4 3 3 6 4 6 8 9 10 8 8 4 5 8 9 11 11 14 15 12 10 12 11 11 10 12 11 11 12 13 14 15 17 17 17 17 16 16 16 16 15 15 15 13 12 12 13 14 13 13 12 12 11 12 12 13 14 14 14 15 14 13 13 13 13 11 11 11 10 10 10 12 12 12 12 12 10 8
6 7 6 7 8 6 8 9 11 11 11 14 12 15 7 8 4 2 4 2 4 6 3 5 12 15 10 8 12 10 11 9 8 9 10 14 14 14 13 12 11 12 11 10 12 13 15 11 13 13 15 16 17 17 16 16 16 16 15 15 15 14 13 13 13 13 12 11 10 11 10 11 12 13 13 14 14 15 15 14 13 12 11 11 10 10 10 10 9 9 11 12 12 11 10 9 6
9 9 4 7 6 7 9 11 12 10 12 16 14 15 1 4 4 3 5 3 6 8 10 4 9 6 11 11 9 8 12 13 14 14 14 13 12 12 12 11 12 12 13 12 11 11 16 12 12 13 14 14 16 15 16 15 15 15 14 14 13 13 13 13 12 12 10 10 10 10 11 11 11 12 14 15 15 15 15 14 12 11 10 11 11 11 11 10 10 10 12 12 11 11 10 8 5
8 8 6 8 9 6 10 11 11 13 15 16 14 11 6 3 1 4 4 5 7 8 12 7 6 13 12 15 11 11 11 12 15 15 13 13 11 9 7 12 12 11 13 13 12 13 14 12 12 13 14 14 15 16 15 15 15 14 14 13 13 11 11 12 12 11 10 9 8 10 11 11 12 14 14 14 14 15 14 13 11 11 10 10 11 11 11 11 11 12 11 11 11 10 9 8 5
7 7 7 7 6 10 10 10 11 10 14 15 13 10 10 6 8 5 9 9 4 1 10 9 8 9 17 15 11 8 8 11 12 13 11 12 8 7 8 9 13 12 12 13 12 13 12 16 12 13 13 14 15 15 14 13 13 13 13 13 12 11 11 11 10 10 9 9 8 10 11 11 12 13 13 13 13 12 12 12 10 11 10 10 11 11 12 12 12 11 10 10 10 10 9 7 5
7 7 7 8 9 9 10 10 11 13 13 13 9 1 5 3 7 5 7 9 9 7 9 8 12 15 13 12 9 7 9 11 12 10 11 11 8 7 8 9 10 13 13 13 12 12 13 13 16 12 12 13 13 12 11 11 12 11 11 12 12 13 12 10 9 10 10 8 9 11 11 11 11 12 14 13 12 12 12 11 10 9 9 9 10 11 12 12 11 10 10 9 9 9 8 6 4
8 7 7 8 8 9 9 10 11 11 13 10 3 3 4 10 4 6 7 12 9 9 9 6 6 17 13 11 7 7 8 11 9 10 9 9 9 10 9 9 12 12 13 12 13 12 13 12 12 14 13 12 11 11 11 11 11 11 10 12 11 10 10 9 9 8 7 7 8 9 10 10 12 13 12 12 12 11 11 10 9 8 8 8 9 10 11 11 11 10 10 10 9 8 8 5 4
9 7 9 8 8 9 11 13 12 11 7 6 8 8 4 4 3 7 8 11 7 10 9 12 10 13 11 10 8 8 9 10 9 9 9 9 9 9 9 11 11 13 13 13 13 13 14 13 12 12 13 14 10 10 10 10 10 9 9 9 8 9 9 10 9 7 7 6 9 9 9 8 10 12 11 11 11 10 10 9 8 8 7 8 9 10 10 11 10 10 10 10 10 8 7 5 4
9 7 8 9 8 10 11 11 10 8 7 9 1 12 7 4 6 9 9 9 8 12 9 7 8 18 14 11 8 7 8 10 13 11 9 8 9 9 10 12 12 12 12 13 13 13 13 12 12 12 12 11 9 9 9 9 10 8 7 7 7 8 8 8 7 6 5 8 10 9 9 9 9 10 10 9 10 10 8 9 8 7 7 7 8 9 10 11 10 10 10 10 10 9 8 6 4
10 7 7 8 9 9 10 10 9 5 9 7 12 9 6 5 7 10 11 9 11 13 9 11 17 9 7 10 8 10 11 13 12 9 8 10 11 9 10 9 11 11 11 12 13 13 12 12 12 11 11 10 9 7 6 7 9 8 7 7 6 7 7 7 7 6 8 8 9 9 9 9 9 9 10 9 9 9 10 8 8 7 7 7 7 8 9 10 10 9 10 9 9 9 8 7 5
8 8 7 8 9 10 9 10 10 12 5 6 9 9 6 8 5 6 8 9 6 8 8 8 11 6 13 7 12 16 16 14 11 10 10 10 9 9 11 11 10 10 9 10 11 11 11 12 10 10 10 9 8 6 7 7 9 9 7 6 6 7 7 7 6 7 9 8 8 8 8 7 8 8 10 8 9 9 9 8 8 6 6 7 6 7 8 9 10 10 9 9 9 9 8 7 5
7 7 8 7 10 10 9 9 6 10 6 8 5 5 7 7 8 10 11 3 3 10 7 17 12 13 13 13 16 18 17 12 10 11 10 9 8 8 8 8 8 7 6 9 8 9 12 10 11 9 8 9 9 7 6 7 8 9 7 6 6 6 6 6 6 6 7 6 6 6 5 5 4 4 6 6 9 7 8 7 8 7 6 6 7 7 8 9 9 10 10 9 10 9 8 6 4
7 8 8 9 9 12 10 11 5 6 8 5 4 6 9 9 10 9 6 10 8 10 12 15 19 17 15 15 18 16 17 14 11 12 10 9 7 8 8 8 8 7 7 5 6 8 9 9 11 10 8 10 8 6 5 4 6 7 6 5 5 5 5 6 4 5 7 5 5 3 4 3 4 4 4 6 5 5 7 8 8 7 5 5 6 7 8 8 9 10 10 10 10 10 9 2 2
8 7 8 10 10 11 12 3 10 14 7 5 10 5 5 6 11 8 9 9 9 10 8 15 14 16 17 13 15 15 14 10 9 9 10 10 9 10 8 8 9 10 6 4 3 6 6 7 10 9 9 8 7 6 5 5 7 3 5 5 4 5 4 6 4 5 5 5 5 5 4 4 5 4 4 5 5 6 5 8 7 6 5 5 6 7 8 8 8 9 10 10 10 12 6 2 3
9 9 10 11 13 13 12 3 3 8 6 1 5 10 9 6 9 12 11 12 9 10 10 13 13 13 15 12 13 12 13 11 9 8 9 8 9 8 8 8 7 6 7 5 6 4 5 6 5 6 6 6 7 8 7 3 5 3 3 3 3 3 4 5 4 4 3 4 4 4 5 5 4 2 7 9 6 4 4 6 6 5 5 5 6 5 7 8 9 9 9 10 7 5 3 4 4
8 11 10 10 12 13 9 5 2 4 5 2 5 2 6 5 3 5 13 9 7 6 11 10 15 15 14 11 10 10 10 10 9 7 7 7 6 5 6 5 6 6 5 5 6 5 5 4 6 4 9 9 5 6 2 2 4 6 4 3 2 4 5 6 4 3 1 2 3 4 6 3 8 9 9 3 2 2 2 1 2 2 2 3 6 3 4 6 6 6 5 6 4 6 6 6 5
6 11 14 17 10 8 9 9 6 9 4 5 3 5 10 10 1 8 9 8 8 9 13 13 17 19 16 14 11 10 9 7 6 7 6 6 4 6 5 8 7 7 7 6 3 4 6 6 7 6 9 6 7 3 4 3 8 7 3 2 1 2 2 1 3 4 1 1 5 2 9 5 2 5 6 8 4 1 3 2 2 2 3 3 5 4 4 5 5 5 5 6 6 7 7 5 6
10 10 13 15 15 10 8 9 4 5 2 9 5 6 7 2 4 8 8 6 15 5 15 20 16 13 14 13 11 10 8 8 8 7 6 4 5 3 5 6 6 7 6 9 9 9 8 7 7 9 5 7 7 6 5 5 7 7 4 4 3 3 3 1 4 4 3 3 5 3 5 3 1 4 2 2 3 6 1 3 2 3 3 4 5 5 5 5 5 5 5 5 6 8 8 5 5
10 9 10 14 14 9 7 7 4 4 11 9 11 7 7 7 12 9 10 12 19 20 18 18 17 15 13 11 6 9 8 6 6 5 4 4 4 4 6 6 4 9 11 7 5 1 4 7 9 12 9 10 9 8 6 5 5 6 4 5 3 2 2 1 5 4 2 2 6 1 2 2 1 3 2 3 4 1 3 2 3 4 4 4 5 7 5 5 6 5 5 5 7 6 5 3 3
12 13 12 11 11 11 11 7 3 5 10 11 4 4 11 9 12 10 12 15 19 18 18 18 18 17 14 12 9 7 7 6 5 4 3 4 4 5 6 6 9 13 12 8 8 6 4 4 3 5 5 5 6 5 5 5 6 6 6 5 4 4 1 2 6 3 4 4 4 4 3 4 4 3 4 5 1 1 2 2 4 3 5 5 5 7 5 5 5 4 5 6 5 4 4 3 4
13 13 12 13 10 7 12 10 6 7 7 7 8 8 11 12 11 11 6 10 19 19 15 14 14 15 12 12 9 7 6 6 5 5 4 4 5 5 6 9 10 14 8 6 7 5 5 4 3 3 5 3 5 5 5 6 5 5 5 5 5 4 4 3 4 5 5 5 3 5 5 3 5 3 3 2 3 0 1 3 4 4 5 5 6 7 6 6 5 4 3 5 6 4 4 3 3
10 17 14 14 13 9 9 12 7 9 9 10 12 10 11 10 5 9 10 11 20 16 16 15 15 12 11 10 8 5 6 5 5 4 4 5 5 6 7 11 12 13 8 9 7 5 6 6 5 5 3 4 4 5 5 5 5 5 6 6 5 5 6 4 3 5 5 4 4 6 5 4 2 3 2 3 3 3 2 2 3 4 5 6 4 7 7 4 4 5 5 4 5 5 3 3 2
12 4 11 15 15 11 10 10 11 9 11 13 11 12 12 9 9 8 11 10 14 14 15 17 14 13 11 11 8 7 6 4 5 3 5 6 5 5 8 8 10 9 9 9 8 5 5 5 4 3 3 3 1 1 2 3 3 3 3 3 4 5 6 5 3 5 4 4 4 4 1 2 2 3 3 4 4 3 2 1 0 1 2 4 9 8 6 4 4 5 5 4 4 2 2 3 4
12 10 10 11 13 14 13 12 12 12 11 12 12 12 13 10 14 12 15 13 11 15 16 18 14 13 12 12 9 8 8 6 5 5 4 5 6 7 9 10 9 8 6 8 8 7 6 5 4 4 4 5 4 3 3 2 2 2 2 3 4 4 5 5 3 3 3 4 4 5 3 6 4 4 3 2 3 2 3 1 2 1 2 1 2 12 14 5 3 4 3 4 5 1 5 3 5
12 12 9 10 11 13 14 9 11 13 11 12 10 11 11 12 13 17 16 12 13 15 15 15 13 13 10 9 6 5 6 5 5 6 7 6 7 8 10 10 9 7 7 7 7 8 6 5 5 5 6 5 5 4 4 2 2 2 2 3 3 5 5 5 7 6 4 2 3 3 3 6 5 4 4 4 3 3 3 2 1 2 2 1 1 4 9 9 4 3 3 4 4 3 4 3 4
12 11 9 9 9 11 14 12 13 14 10 13 13 11 10 12 17 19 13 12 14 12 10 15 11 8 13 10 10 8 5 6 8 9 9 9 8 8 10 9 9 7 6 6 7 7 6 5 5 4 5 7 6 5 5 4 3 3 3 3 4 4 3 3 5 2 1 2 3 3 3 5 3 4 4 3 3 3 3 4 3 3 3 3 2 1 1 9 11 3 2 4 4 3 4 3 4
9 10 12 10 11 9 16 17 16 14 12 15 14 11 9 14 17 13 12 12 11 12 12 17 13 4 7 8 10 11 8 7 7 8 10 9 8 9 10 9 8 7 7 6 7 6 8 6 5 6 4 5 5 5 3 3 3 3 2 4 4 3 3 3 2 5 3 4 1 3 4 4 4 3 3 3 2 3 4 5 4 2 3 4 6 6 6 2 3 8 6 3 2 2 4 3 5
10 12 10 12 11 12 12 20 16 18 14 15 15 10 13 14 14 15 12 11 10 11 11 18 17 10 5 8 4 9 9 9 8 8 10 8 8 8 8 9 8 8 7 7 6 6 7 7 4 6 6 5 4 4 4 4 4 4 1 0 2 2 4 2 1 3 3 5 4 4 3 3 4 4 4 5 5 4 3 4 5 5 3 3 2 3 3 3 3 2 6 3 2 5 4 4 2
10 11 10 10 13 12 12 18 17 18 18 13 16 16 13 11 17 16 13 12 12 11 17 18 15 10 7 9 10 9 9 6 9 8 4 9 8 9 10 9 9 7 7 7 6 6 6 6 6 4 4 4 4 3 3 4 3 3 3 3 1 5 4 5 7 6 6 5 3 4 3 4 6 6 5 5 4 4 3 3 3 4 4 3 4 4 4 2 1 2 4 2 3 4 6 3 2
10 10 10 11 12 15 15 13 16 18 19 14 16 18 13 10 12 15 15 14 12 11 16 18 15 15 8 10 7 14 8 5 9 5 2 9 9 10 10 9 8 7 6 6 6 5 5 5 6 5 4 3 3 1 0 1 1 2 2 3 4 3 2 2 3 3 4 3 3 5 4 3 4 4 4 3 4 4 5 5 4 4 4 5 4 4 3 3 2 3 3 2 5 7 7 4 2
13 13 11 13 11 13 16 13 17 19 18 14 17 15 14 10 9 11 12 13 12 11 12 15 14 8 7 9 12 7 7 8 7 8 2 8 9 9 9 9 7 6 5 5 5 5 5 5 6 5 5 3 3 2 2 2 2 3 3 3 2 2 3 3 3 3 6 4 4 3 5 3 5 3 3 4 4 4 4 4 5 4 5 4 5 6 6 5 4 4 5 4 2 4 8 8 1
13 13 13 13 14 12 15 13 17 18 16 15 16 17 14 12 10 9 12 12 13 15 12 18 12 10 10 7 5 9 10 9 7 2 5 10 11 10 9 9 8 8 8 7 7 7 7 7 5 6 4 2 2 3 2 2 2 1 1 1 1 3 3 3 4 5 5 5 6 5 4 4 5 4 5 6 5 6 5 4 4 5 5 5 5 5 6 6 5 4 3 2 1 3 3 3 5
17 11 12 11 15 12 13 15 20 18 13 14 16 16 14 11 10 9 5 5 3 4 5 12 17 15 13 14 10 10 9 10 10 9 10 10 10 11 10 8 8 9 9 9 8 8 6 6 6 4 3 4 4 3 1 3 2 3 2 2 0 2 3 2 4 3 4 4 4 4 4 4 4 5 4 4 4 5 5 6 5 5 5 5 6 6 5 6 6 5 3 2 2 2 3 3 3
17 16 12 12 12 13 12 14 21 18 16 12 16 15 13 12 9 9 8 9 6 2 2 4 18 20 12 11 12 11 11 11 12 11 10 11 13 13 11 9 9 8 8 8 7 8 8 6 5 4 4 4 4 4 3 3 2 2 2 2 2 2 1 1 1 5 5 4 4 4 4 3 4 4 5 4 4 5 5 5 6 6 6 6 6 7 6 6 7 8 7 6 4 3 3 1 4
13 12 11 13 11 11 10 14 16 17 11 11 16 11 10 12 9 10 9 7 10 20 20 18 16 16 15 14 13 12 12 12 11 11 10 12 13 12 11 10 9 10 9 8 7 7 6 5 5 4 4 4 3 3 3 3 3 1 1 1 2 2 2 1 1 2 4 4 4 3 3 4 5 5 6 6 5 6 6 5 4 5 6 7 7 6 6 6 8 7 7 7 6 6 6 5 5
14 14 13 13 14 14 14 10 13 15 15 16 16 12 10 10 9 9 8 7 10 17 19 17 16 16 16 16 14 13 12 11 10 10 10 10 11 11 10 9 9 9 9 10 9 7 5 6 5 5 4 4 3 3 3 2 2 1 1 2 2 2 4 3 1 1 1 2 4 5 5 6 6 5 5 6 6 5 5 5 5 6 6 7 6 6 6 7 8 9 9 7 8 7 5 3 3
12 15 16 13 13 16 18 9 11 8 12 17 17 8 8 10 12 11 9 10 10 10 12 15 13 12 13 14 14 13 13 11 11 10 10 10 10 10 10 10 10 8 8 7 7 8 8 6 6 5 4 4 4 4 3 2 1 1 1 2 2 3 3 2 2 2 3 4 4 4 5 6 6 6 6 7 7 5 6 6 6 6 7 6 6 7 6 6 7 9 8 8 8 8 6 5 4
11 12 18 19 17 14 16 15 14 12 13 16 18 12 4 9 11 13 10 11 14 12 12 10 11 10 10 11 10 11 11 11 11 10 10 10 10 10 10 10 9 9 7 6 6 7 8 7 6 6 5 4 4 3 3 2 2 1 1 2 2 3 3 1 3 2 2 2 3 4 4 4 5 4 4 5 5 6 5 5 5 6 6 5 5 5 6 8 8 8 8 8 8 8 7 6 7
12 9 17 17 17 15 14 16 13 8 11 13 16 11 9 10 13 13 14 15 13 11 9 8 9 10 10 10 11 10 10 10 10 11 11 10 10 10 10 9 8 9 7 7 6 7 7 7 7 7 6 6 7 7 8 6 5 4 3 3 3 3 3 2 2 1 2 2 2 2 3 3 4 4 4 4 4 6 5 5 6 6 6 5 5 6 7 7 6 6 7 9 7 7 9 9 7
10 13 16 16 18 16 17 13 13 11 11 13 13 15 8 7 11 18 19 15 12 11 9 8 8 9 10 10 10 11 11 10 10 10 11 10 10 10 9 9 8 9 8 7 7 6 6 8 8 9 9 8 8 9 8 8 6 5 4 3 4 3 3 2 2 1 1 0 2 1 1 1 2 3 3 3 4 5 6 5 6 7 7 7 5 5 6 7 8 8 8 8 9 8 8 8 8
14 13 12 13 17 17 14 12 13 11 10 11 15 15 10 11 10 14 15 14 14 13 11 10 8 9 9 9 10 11 10 9 9 11 10 10 9 9 8 8 9 7 6 7 7 7 8 8 9 9 10 9 8 10 9 9 8 7 6 6 8 7 6 4 1 0 1 1 2 2 2 3 3 3 3 2 3 5 5 6 6 8 8 7 6 6 6 7 7 8 9 9 8 8 7 8 9
11 17 14 14 13 11 12 10 10 9 7 13 15 16 14 10 13 14 16 14 15 14 12 10 10 10 9 9 9 9 9 8 8 9 10 10 8 8 7 9 8 8 6 7 7 7 7 7 8 8 8 7 8 8 9 10 9 8 8 9 8 8 8 7 6 3 1 1 1 3 2 3 4 4 4 4 5 6 5 6 6 6 7 7 6 7 7 7 6 7 8 8 8 9 8 8 9
15 12 12 10 10 9 10 9 9 6 8 14 18 16 18 14 8 11 11 14 20 18 16 14 13 11 9 9 9 8 8 8 8 8 8 9 8 8 8 9 9 9 8 8 7 7 7 8 8 8 7 7 6 7 7 7 7 8 9 10 10 9 8 7 7 7 5 5 4 3 2 3 3 3 3 2 4 7 4 3 2 6 7 7 8 6 6 7 7 7 6 7 8 9 8 8 8
15 13 12 12 9 6 8 9 9 10 10 13 19 18 14 13 7 8 14 18 18 16 15 15 14 13 11 10 10 8 8 8 7 7 8 7 7 7 8 8 7 7 7 8 8 7 7 7 8 8 7 7 7 6 6 7 7 8 8 9 9 9 10 10 8 8 6 5 4 4 4 3 2 4 3 2 2 5 6 5 2 5 8 8 7 5 6 7 7 5 6 8 8 9 10 9 8
16 16 13 12 11 10 8 10 6 9 14 16 18 18 6 8 10 14 17 14 16 17 16 15 14 13 11 10 8 8 7 7 7 7 7 7 7 7 7 6 7 6 8 6 7 6 6 6 8 8 8 8 8 7 8 7 7 8 8 8 8 8 9 9 9 8 8 6 5 3 2 3 3 5 5 5 3 2 3 5 5 6 7 8 5 7 8 7 5 5 7 8 9 8 7 10 10
15 15 14 12 12 9 8 10 10 11 10 15 16 11 4 6 5 11 18 18 17 16 15 15 14 13 12 10 9 8 8 7 6 7 7 7 6 6 6 6 6 6 6 6 6 7 7 6 7 8 8 8 8 9 7 8 6 6 6 7 8 8 8 8 8 8 8 8 7 4 3 3 4 4 5 4 3 4 5 3 3 6 7 7 7 6 6 8 9 5 6 8 8 8 9 8 9
14 14 12 12 13 9 11 4 7 7 9 8 6 3 3 7 10 12 13 15 16 16 16 15 13 12 12 9 8 7 7 7 7 7 7 7 7 6 6 5 6 6 6 5 6 5 5 5 6 6 7 6 7 7 8 7 7 8 7 7 8 7 7 6 6 7 8 8 7 5 5 3 2 4 5 5 5 4 3 4 4 6 7 6 6 7 8 6 5 5 7 9 11 7 9 11 11
12 14 16 14 12 12 3 5 8 2 3 5 7 7 7 8 6 13 15 15 15 15 15 14 13 12 11 9 8 7 7 7 7 7 7 7 6 6 6 6 5 5 5 5 6 5 5 4 6 7 3 5 7 7 7 8 8 8 8 9 9 10 9 8 7 7 8 8 8 7 5 3 4 4 4 3 5 5 4 3 3 5 6 6 6 7 9 8 5 4 8 9 10 9 8 9 9
9 14 15 13 14 14 5 4 4 5 6 3 8 11 9 10 3 9 13 14 14 14 14 15 14 13 11 9 8 7 7 8 8 8 7 6 6 6 6 6 6 6 7 4 4 4 5 7 4 4 4 5 6 8 7 7 8 7 7 8 8 7 8 9 9 9 9 8 8 7 7 5 4 5 4 4 4 8 6 6 4 5 5 5 7 6 6 6 5 5 8 9 9 8 8 8 8
14 14 10 13 8 12 6 2 6 8 8 6 9 12 10 8 8 12 14 15 14 14 14 14 13 12 12 11 10 8 7 7 6 6 6 6 6 6 6 6 7 6 3 6 8 6 8 3 6 6 8 10 12 6 7 5 6 6 7 8 9 9 8 8 9 10 10 10 10 10 9 7 5 3 6 4 4 7 8 6 5 6 6 6 6 5 6 6 5 4 7 8 8 8 7 8 7
19 12 13 12 7 8 7 5 7 8 7 7 6 9 5 5 10 15 17 18 16 15 13 12 12 12 11 10 9 8 6 6 6 6 6 6 6 7 6 6 8 8 8 8 8 7 5 7 8 10 11 9 10 10 8 9 8 8 9 8 9 10 10 9 10 10 9 10 11 12 12 11 10 6 3 6 6 6 6 6 4 4 5 5 6 6 6 6 5 6 6 7 8 9 10 9 8
15 13 13 12 8 5 9 7 10 8 6 8 4 4 4 6 4 14 15 17 17 15 14 12 11 11 11 11 9 7 7 6 6 6 6 6 6 6 7 8 8 8 7 6 6 9 9 8 8 9 9 10 9 7 8 7 8 8 9 10 10 10 12 11 11 10 9 9 10 11 10 10 10 10 7 4 6 8 8 6 5 5 5 5 5 6 5 4 4 6 6 6 7 9 11 10 7
14 12 12 14 13 10 11 10 12 11 8 5 5 4 5 5 5 2 9 15 15 15 15 13 12 11 11 10 9 8 8 7 6 6 6 6 7 8 7 7 8 8 8 9 8 6 8 8 8 8 8 7 8 8 8 9 9 9 10 10 10 9 10 10 11 9 10 10 10 9 10 10 9 9 10 7 6 6 6 8 9 6 5 5 5 6 6 5 5 6 6 6 6 9 10 12 8
Wind_Direction
265 242 250 247 244 263 280 230 256 199 211 246 259 253 262 246 251 259 257 111 281 71 64 296 83 306 18 69 85 67 41 41 22 0 86 140 127 121 116 114 111 106 107 115 128 127 128 120 125 126 127 130 127 121 121 122 121 120 120 119 119 120 126 126 126 124 121 121 121 121 120 119 121 122 119 114 108 105 109 112 110 107 109 110 111 111 109 109 107 105 103 103 101 100 99 98 97
246 247 238 244 255 264 238 215 238 268 255 256 249 259 260 264 247 239 269 275 93 86 71 14 107 38 211 108 114 83 59 59 61 82 99 114 110 106 113 111 116 112 116 121 137 136 132 131 123 126 132 132 126 127 126 126 126 124 125 125 125 130 129 131 130 128 125 126 129 128 123 125 124 118 115 110 105 108 114 116 114 112 112 111 110 109 109 108 108 107 106 107 104 103 101 99 96
264 260 245 229 240 241 286 259 248 253 257 254 257 253 251 259 221 253 221 76 64 62 303 74 22 211 147 185 64 71 91 83 87 89 96 119 118 112 109 110 113 117 117 130 136 137 131 136 128 131 134 131 129 128 130 130 129 129 129 130 130 133 135 136 133 131 132 132 131 128 126 122 121 116 110 106 107 115 114 116 116 114 112 111 111 112 112 111 110 107 107 108 109 105 100 96 100
284 280 270 242 257 209 241 240 252 257 255 265 280 279 295 285 338 53 43 56 64 294 93 138 204 41 1 93 105 89 94 89 101 120 123 136 118 129 113 109 118 116 125 141 141 139 131 135 136 134 132 131 133 134 133 134 134 134 134 135 135 136 142 140 139 137 136 136 135 132 127 124 125 122 117 110 115 116 116 114 115 115 114 112 114 116 120 116 109 105 104 102 103 100 100 103 105
263 259 249 254 273 251 226 242 250 233 242 250 266 271 275 33 31 73 75 41 25 293 194 169 123 77 49 44 79 78 86 96 106 106 106 96 123 117 117 124 123 131 137 148 139 125 128 140 138 140 139 141 142 139 140 140 139 142 140 139 140 144 145 145 143 142 142 142 137 132 131 130 130 126 121 117 116 117 117 115 115 113 113 114 114 110 98 103 108 108 108 105 104 105 103 104 104
251 258 236 251 240 337 290 257 240 238 250 263 262 263 147 255 117 94 132 191 167 242 210 130 247 135 72 57 59 73 109 83 108 105 113 114 121 124 128 127 128 138 145 136 120 119 139 144 140 140 143 144 146 147 146 145 144 148 147 143 144 147 146 144 144 141 139 138 138 129 125 130 135 130 125 121 118 119 118 116 115 116 117 116 109 104 104 103 107 113 113 111 106 106 108 106 114
236 234 208 224 251 256 260 253 249 258 252 234 245 267 315 41 34 40 288 243 118 233 122 200 100 108 103 104 72 66 55 116 108 98 110 129 125 131 137 137 139 137 137 124 124 133 145 144 143 143 143 148 149 150 151 153 154 154 151 147 146 148 147 146 144 143 142 136 133 125 115 118 137 137 130 122 120 120 122 119 113 110 112 111 109 106 110 111 114 121 117 112 108 108 110 112 123
246 273 217 215 242 203 230 244 254 257 257 254 239 239 117 210 87 222 230 266 153 231 160 259 154 103 84 79 96 72 76 63 96 100 113 121 133 142 143 132 133 144 134 113 127 127 136 142 147 146 145 148 153 153 155 154 154 154 152 150 149 148 147 146 145 146 144 140 132 121 115 117 129 133 125 128 126 125 124 120 112 105 104 107 114 112 107 103 107 111 116 115 118 117 115 117 126
234 236 261 261 248 245 243 240 247 235 255 260 277 314 307 44 202 338 295 241 136 230 157 210 188 129 109 93 85 77 57 76 91 102 116 123 136 142 134 137 140 144 139 127 123 131 143 143 146 148 148 150 153 155 156 154 153 153 150 150 150 148 149 147 150 147 141 137 136 126 118 116 125 125 128 129 129 131 127 118 114 110 105 111 113 116 110 110 110 113 117 121 122 120 118 125 138
238 231 218 233 254 254 251 246 244 243 240 245 242 215 236 194 228 243 262 237 232 134 157 209 185 100 108 105 114 92 96 96 105 111 122 125 139 136 139 139 146 135 115 120 130 137 140 149 145 147 148 151 154 155 155 154 154 154 153 152 152 153 153 154 150 141 140 142 137 129 121 118 126 129 126 126 129 130 127 118 116 111 109 112 116 117 117 115 118 120 120 122 124 123 122 132 139
238 197 261 263 245 249 251 256 243 234 231 245 231 278 97 331 232 229 215 251 190 200 195 189 161 117 102 86 84 91 106 117 123 124 131 133 139 136 140 144 136 119 128 130 135 140 139 151 150 146 148 152 152 152 154 154 154 152 152 153 154 159 156 152 145 145 142 140 139 131 122 123 123 128 135 132 128 128 131 123 114 114 113 110 117 118 122 122 120 124 125 123 122 122 124 129 129
249 225 197 238 247 252 246 245 258 260 236 217 176 204 168 235 188 241 221 238 176 201 184 113 158 118 111 108 113 116 124 118 115 132 135 137 146 146 144 142 137 133 135 136 134 141 143 150 152 151 149 151 154 155 154 154 154 153 152 156 159 158 148 143 147 142 139 137 123 122 123 129 136 136 135 133 133 135 133 125 119 122 121 115 117 124 123 125 126 125 127 129 125 122 126 130 115
251 246 222 235 246 244 264 273 264 296 337 113 233 216 108 137 175 222 236 243 129 227 146 185 115 132 115 103 115 128 138 121 135 141 142 146 144 148 146 138 134 135 140 139 141 145 144 153 154 155 157 158 155 152 150 151 154 150 150 154 157 148 140 143 146 147 139 125 119 127 129 135 144 141 140 137 137 138 138 131 130 132 129 123 121 128 130 127 130 132 134 132 128 127 126 129 120
238 235 260 250 243 259 264 262 264 257 236 245 149 95 131 204 219 238 225 222 173 231 144 183 84 98 100 111 132 141 143 140 135 149 156 149 149 149 142 136 130 142 145 144 147 148 148 156 151 159 159 158 155 143 147 149 151 144 143 149 147 142 135 142 141 142 136 124 129 134 138 144 146 146 144 140 139 141 137 142 141 143 138 125 124 129 135 134 135 137 139 137 133 130 132 129 119
242 243 258 273 280 276 247 255 271 252 256 215 108 156 153 210 246 229 242 204 190 225 139 100 121 158 147 151 148 156 151 152 148 145 147 153 148 141 138 129 138 146 149 145 151 154 154 155 156 153 159 157 152 155 156 149 148 143 143 146 139 134 136 138 145 144 140 139 138 142 150 146 149 151 154 145 143 146 151 146 153 155 145 130 128 134 138 142 142 142 141 139 137 134 131 133 133
242 252 243 256 256 253 250 235 242 284 285 54 113 197 203 220 208 254 247 241 130 59 102 118 59 28 152 150 149 144 144 142 151 144 148 152 144 139 135 143 143 149 143 150 154 157 159 155 156 149 156 157 144 151 150 156 156 154 144 129 128 135 134 128 119 131 142 145 147 158 160 156 155 156 157 153 152 157 159 167 162 164 151 137 134 143 146 148 149 150 147 144 138 137 136 139 147
237 255 261 243 252 247 261 271 224 230 184 141 153 158 219 184 168 236 229 150 113 137 108 62 71 67 37 120 134 132 136 136 148 150 154 150 149 149 146 147 146 147 149 155 158 161 159 156 146 142 155 143 150 145 145 149 157 152 137 122 130 132 130 121 107 132 135 149 159 171 169 173 175 163 167 170 163 161 177 173 169 164 156 144 141 148 155 158 156 153 153 148 142 138 142 144 151
221 225 241 244 240 241 243 253 247 228 88 34 248 170 222 212 164 217 275 139 213 157 112 95 73 71 68 89 113 127 130 138 149 160 162 155 162 155 158 155 151 148 152 165 153 156 156 149 141 147 148 141 150 137 128 127 142 152 157 140 152 137 143 141 130 165 168 161 186 185 202 201 199 172 199 167 179 172 185 167 171 165 160 155 148 154 162 168 164 158 160 156 147 143 149 149 161
227 223 233 242 227 248 272 71 1 24 48 63 27 334 228 229 160 164 220 155 155 136 110 84 89 92 100 100 115 118 130 141 156 170 165 167 168 163 162 160 164 146 167 131 112 135 148 152 145 145 142 136 139 122 122 122 125 145 151 150 154 156 165 176 171 188 183 187 197 206 224 224 204 176 210 162 194 166 166 166 170 171 164 163 159 161 165 172 172 171 171 167 157 158 171 170 187
223 249 224 233 254 250 240 86 1 64 285 308 190 201 222 32 201 137 216 193 158 192 163 130 114 112 107 116 115 133 137 157 169 177 175 173 177 167 159 170 145 143 152 125 142 156 147 156 107 92 85 86 49 23 7 50 126 122 116 154 145 153 177 189 182 201 185 199 192 216 244 247 222 155 206 188 174 155 141 169 174 181 175 170 169 164 170 173 179 185 186 176 173 188 193 175 189
183 232 242 238 225 252 274 276 318 340 52 356 302 125 243 187 313 165 205 190 192 169 140 144 136 129 122 121 129 134 152 165 168 181 182 179 179 164 160 151 145 142 135 140 140 157 143 84 79 48 58 53 54 66 55 26 77 60 358 359 29 174 185 189 187 152 338 304 208 222 242 350 16 340 351 300 107 140 140 198 186 211 214 191 180 190 175 171 181 194 199 195 214 214 228 177 190
233 220 240 254 276 303 342 4 237 222 192 282 333 212 226 197 138 228 212 190 203 195 162 158 128 128 131 143 157 150 157 172 172 178 192 182 174 150 136 90 91 121 132 123 94 112 54 38 59 62 66 60 54 130 182 139 98 121 172 150 139 57 349 238 79 55 62 1 308 334 46 357 60 3 352 319 320 168 148 209 236 218 213 217 189 220 194 159 196 199 201 201 219 227 230 208 178
243 227 241 250 259 296 277 206 330 41 50 240 280 278 16 276 187 249 253 113 30 24 117 110 109 93 122 141 145 155 161 164 186 170 185 181 136 141 128 112 128 115 93 46 12 31 39 30 74 70 135 146 160 163 165 140 125 139 151 149 157 148 173 130 68 77 21 346 298 9 53 314 188 117 207 294 274 309 299 152 222 248 221 215 196 237 197 169 203 196 206 204 226 230 229 186 162
230 249 226 243 258 256 272 352 161 182 259 264 247 34 277 205 237 203 226 96 99 94 99 110 110 116 121 126 158 148 168 157 183 159 172 160 132 118 103 92 77 81 71 77 68 145 178 156 147 158 160 171 147 170 151 122 125 138 154 148 141 129 168 117 76 94 107 295 256 245 122 280 188 138 232 249 253 166 291 318 208 205 244 237 196 241 210 179 208 195 200 217 231 237 219 188 159
220 239 258 259 234 229 255 223 105 231 216 243 284 258 228 222 237 169 208 108 105 106 112 121 131 144 140 139 154 154 153 175 167 158 166 134 118 106 106 106 88 68 79 133 191 169 189 125 128 154 157 140 114 124 125 145 148 157 163 153 150 172 131 97 104 107 184 221 266 268 145 196 250 162 174 190 198 253 169 191 303 248 204 235 218 237 224 180 215 206 199 214 236 237 237 173 200
224 235 237 256 268 239 233 236 219 226 223 215 233 231 228 228 264 215 181 137 118 120 130 135 133 127 132 136 144 153 159 176 153 164 148 107 113 104 81 83 72 92 106 123 127 135 116 119 116 129 150 153 139 134 161 163 149 160 160 154 151 155 141 125 125 156 176 189 213 251 218 185 202 187 171 168 154 259 229 186 172 293 278 208 219 240 246 181 190 237 218 220 232 230 226 200 184
210 217 235 247 242 235 238 245 212 234 235 207 231 218 230 212 204 205 145 162 125 136 144 138 135 134 135 138 145 148 160 162 154 124 122 102 97 86 94 82 87 113 126 108 105 130 147 157 157 144 135 103 134 161 160 152 152 161 160 157 147 137 133 138 143 186 170 191 182 233 225 190 162 158 107 116 144 197 221 224 175 151 258 293 235 235 251 187 171 203 252 226 241 227 218 228 172
261 325 218 228 252 240 237 218 236 217 224 229 209 224 225 176 211 204 146 146 152 140 141 147 144 139 143 139 153 149 150 134 116 125 126 133 119 107 73 83 97 111 122 124 125 139 133 131 111 124 108 130 139 199 78 101 111 115 116 106 110 116 126 136 172 226 156 168 187 220 273 317 170 157 152 151 148 169 173 284 276 166 274 75 301 280 253 222 175 193 239 263 261 283 309 294 226
247 187 255 252 229 243 230 218 218 208 224 212 211 225 213 180 216 221 150 154 177 160 150 152 144 144 145 148 152 155 143 148 125 114 92 94 103 99 92 96 105 101 100 121 132 139 141 143 134 137 131 136 148 131 106 88 105 121 119 112 121 143 147 143 100 286 247 150 191 209 169 220 192 162 153 171 152 152 129 112 302 267 240 114 329 315 303 264 199 187 231 245 254 186 235 205 238
251 238 231 239 236 229 227 224 217 208 217 186 203 228 211 179 211 233 145 169 188 166 168 160 152 144 136 123 139 139 121 132 134 114 105 89 88 97 92 91 94 102 116 124 130 130 134 140 150 149 158 153 137 139 138 133 134 102 118 137 153 154 151 154 160 184 252 181 180 216 202 213 182 166 166 161 145 148 119 108 6 308 300 28 338 281 298 301 241 183 212 263 257 254 255 220 243
230 231 227 245 237 223 211 209 211 219 203 195 202 234 196 177 209 221 142 177 195 160 169 98 109 121 142 167 155 142 131 128 94 99 96 90 90 90 90 95 98 108 108 104 116 127 118 118 129 135 145 141 148 147 157 150 148 169 171 166 159 155 147 155 115 80 300 237 174 183 207 255 226 173 153 151 148 143 148 131 192 202 184 192 163 207 78 306 310 263 189 239 239 238 267 260 252
217 222 225 216 242 232 206 193 204 214 198 206 196 232 218 176 217 157 154 177 188 164 160 129 121 159 125 133 146 144 155 111 121 100 92 89 88 93 96 92 91 87 84 95 100 111 121 119 125 113 130 127 131 140 145 149 177 187 184 168 156 149 100 76 91 126 218 259 150 187 204 197 211 181 176 143 169 184 161 146 154 181 215 198 189 172 139 155 304 320 273 250 285 232 238 242 262
207 224 223 222 217 247 220 185 194 208 211 192 197 218 233 189 177 146 159 167 189 172 164 122 135 132 132 125 220 132 125 128 112 103 95 94 88 92 93 90 89 78 69 68 72 86 93 115 114 116 134 129 139 138 167 177 186 168 185 306 92 109 105 138 116 103 183 219 186 191 204 182 194 193 181 175 173 172 172 156 155 170 192 191 140 139 134 189 199 234 285 246 62 312 294 257 286
212 201 236 227 218 222 249 165 190 197 219 182 195 230 235 207 147 154 159 180 181 207 131 134 134 136 153 159 181 139 120 104 98 76 67 92 94 91 85 86 85 80 73 72 64 61 78 83 86 86 124 135 140 155 175 191 177 165 182 175 125 125 190 174 158 165 185 228 174 172 216 202 209 193 177 170 161 173 170 167 176 171 153 168 155 159 172 139 190 256 289 284 108 276 267 280 268
206 197 216 234 227 228 234 175 180 196 207 192 198 228 242 92 144 171 179 196 196 210 136 140 141 143 162 170 98 64 63 22 38 64 74 89 89 79 83 83 81 80 79 73 81 100 91 87 110 120 97 84 104 108 182 207 192 197 165 159 167 205 198 183 159 156 138 148 224 171 184 258 240 210 187 188 162 177 182 169 170 170 170 171 155 161 166 153 192 230 225 278 146 223 256 270 224
214 201 211 229 222 222 236 183 172 191 194 195 205 218 216 169 160 187 175 201 199 207 149 130 126 115 70 19 89 85 83 72 54 356 338 76 76 83 81 80 77 82 85 89 82 63 62 81 86 84 77 84 139 172 150 167 209 201 192 193 149 197 184 178 170 146 131 165 229 217 163 210 246 235 207 191 176 180 186 175 170 168 168 167 171 174 173 171 174 212 218 201 231 214 195 239 171
223 213 209 222 230 228 231 179 167 181 203 199 213 217 197 167 180 169 192 191 197 202 185 130 123 117 90 89 79 96 77 76 88 100 38 66 68 66 66 66 67 62 63 70 71 64 54 55 61 71 77 81 40 48 41 20 42 4 23 19 97 177 227 194 168 153 162 170 184 196 187 194 225 237 217 200 189 193 190 173 172 170 171 174 183 196 180 171 176 184 203 194 174 349 310 73 61
251 229 215 221 228 233 220 186 161 171 222 188 219 215 166 170 174 168 158 180 186 106 85 133 144 119 121 119 105 96 101 95 90 72 55 56 61 61 55 52 50 61 52 55 62 64 70 68 60 59 60 69 63 62 57 84 358 28 346 18 280 182 210 177 118 151 155 169 187 184 196 200 220 231 221 215 203 209 194 186 181 173 179 178 189 197 185 176 172 171 162 186 143 132 275 72 110
248 257 211 215 225 247 220 208 164 165 208 201 199 213 161 161 158 159 166 190 167 163 115 97 114 122 132 121 116 114 99 87 77 73 57 49 46 47 52 48 47 46 51 49 45 51 42 50 63 59 55 53 64 51 11 45 46 32 2 337 324 308 276 83 129 150 143 162 185 195 191 194 226 243 236 220 207 223 230 208 189 176 180 180 183 193 190 182 183 173 180 180 141 124 215 234 178
243 242 264 224 210 209 206 221 174 171 189 214 190 194 151 147 160 165 165 136 101 67 66 83 93 105 114 112 110 100 89 84 72 61 53 49 47 43 39 39 35 37 36 37 38 43 50 43 38 50 51 51 60 72 34 39 41 333 346 322 297 284 327 11 199 162 158 152 167 210 195 197 207 227 238 226 212 220 216 219 202 187 191 187 187 187 190 177 178 178 179 182 166 156 169 209 165
229 244 243 242 204 199 242 199 182 160 180 237 188 189 155 165 159 159 139 146 138 76 78 86 83 82 86 82 76 80 84 80 77 68 59 54 53 54 53 48 43 41 36 35 28 30 34 44 39 45 53 50 56 52 61 28 46 340 31 287 252 234 215 195 114 33 96 173 185 181 203 205 207 210 228 237 226 226 225 218 209 205 206 198 187 188 191 187 182 182 177 170 166 165 167 171 155
220 229 243 248 232 208 223 175 175 179 191 222 225 147 177 171 186 172 144 154 102 87 87 76 90 87 85 85 88 87 85 84 82 75 67 64 61 54 49 48 47 45 42 31 34 30 31 33 36 43 51 39 34 42 34 19 14 5 341 304 329 329 319 59 88 167 175 187 208 172 187 204 208 212 214 229 228 217 232 227 215 212 214 205 200 194 189 191 188 185 185 170 166 170 162 160 165
221 205 232 249 255 228 222 148 173 196 207 197 227 196 157 177 189 154 162 119 97 85 80 79 76 78 75 82 88 88 89 85 78 77 71 66 63 60 55 50 49 46 34 31 31 29 33 35 29 33 41 34 28 18 25 336 355 352 356 318 300 287 304 354 135 151 252 233 174 170 183 192 216 222 232 237 225 227 228 233 231 227 220 221 210 202 194 198 196 185 178 178 185 168 156 173 180
222 201 222 238 255 247 233 164 178 197 229 236 220 231 165 187 203 193 165 125 113 96 87 84 81 82 83 78 81 81 80 81 81 78 76 68 66 63 57 52 43 37 28 26 29 25 22 27 32 30 33 33 18 11 11 4 345 352 341 318 298 302 295 321 82 174 151 251 244 200 176 177 201 225 224 234 252 238 232 235 232 226 229 226 216 215 211 207 202 194 182 189 181 178 170 167 174
219 210 210 226 237 247 264 213 170 204 205 224 217 195 223 202 186 180 138 142 130 119 111 101 96 90 89 85 80 80 77 77 80 79 75 72 68 65 63 57 48 37 29 24 21 21 18 19 26 26 19 18 16 8 4 1 353 337 320 311 305 297 305 342 83 39 72 134 287 307 289 239 193 204 229 223 229 243 236 237 239 235 229 229 219 230 220 212 205 198 196 192 191 193 181 178 169
217 230 196 224 233 242 262 244 203 192 211 224 222 195 209 201 185 183 145 151 153 132 128 121 112 103 92 86 81 81 83 80 78 78 79 76 69 63 59 60 55 46 34 29 21 22 23 19 19 27 19 10 9 2 356 358 354 348 349 352 348 342 336 331 355 125 239 345 312 349 353 316 333 349 335 325 304 273 270 248 242 246 239 229 220 225 224 217 210 207 205 203 201 199 194 189 189
204 235 231 208 228 236 251 259 201 180 205 231 226 206 216 227 189 183 180 179 147 133 134 128 120 110 97 85 83 80 78 79 81 79 76 70 66 64 59 57 50 43 37 31 23 22 27 21 10 26 27 7 7 4 357 354 351 354 355 353 347 347 350 345 341 318 168 73 301 300 331 2 16 342 344 334 302 288 265 293 292 285 266 243 226 223 228 218 217 211 210 211 211 204 200 199 197
212 220 233 204 217 243 265 262 206 186 208 220 229 219 208 233 161 185 177 160 138 142 144 140 133 123 109 99 93 86 85 82 75 75 71 69 70 63 56 55 47 40 32 33 27 21 24 23 10 12 25 5 9 3 354 354 354 356 354 350 347 352 348 346 346 336 333 320 317 327 6 355 8 301 287 267 288 276 273 231 256 301 299 285 256 244 229 227 219 212 223 217 218 217 211 202 199
206 217 217 207 189 200 228 239 201 204 211 214 227 209 209 217 32 312 170 119 129 131 136 136 131 121 111 101 93 87 78 85 87 77 76 74 66 61 55 47 46 39 34 34 32 20 17 18 10 8 17 5 7 2 356 0 358 357 356 352 353 350 351 348 344 335 350 338 325 349 332 356 290 270 267 287 276 303 296 284 153 224 241 244 245 255 259 253 236 233 222 229 221 220 219 208 203
204 211 211 205 199 192 220 219 222 208 216 225 227 198 216 70 45 50 96 106 113 118 124 122 121 115 109 99 100 97 92 87 84 81 81 72 62 63 56 53 49 43 39 38 38 34 25 22 8 11 14 8 7 4 356 6 360 0 354 353 351 354 350 349 341 338 340 349 346 318 296 273 263 259 275 260 200 254 298 273 255 253 257 259 228 212 230 239 245 234 230 227 226 227 226 221 214
207 211 216 212 208 197 209 215 207 211 214 213 224 204 102 151 125 84 100 103 112 113 117 112 109 109 108 111 111 108 106 101 90 84 74 71 70 66 64 56 46 45 43 35 42 33 31 22 14 16 15 8 12 360 360 355 2 358 355 358 358 356 352 342 336 332 338 339 337 331 248 268 282 282 274 268 242 228 211 214 262 263 254 257 269 266 229 215 218 207 245 238 236 225 227 226 222
202 209 207 207 212 202 218 204 249 213 232 232 232 61 355 87 121 111 106 110 109 116 112 114 115 114 115 107 110 112 108 104 96 88 84 74 69 63 64 65 55 47 44 38 46 53 37 22 4 13 7 32 14 9 358 353 1 355 359 5 1 352 348 334 331 330 328 330 330 330 303 259 233 264 277 275 264 242 206 226 230 257 270 268 270 273 270 259 231 221 232 234 233 222 218 226 227
181 212 210 204 208 225 200 174 239 310 355 247 95 126 92 124 118 122 124 120 123 121 124 121 120 115 110 114 113 110 104 93 87 75 67 66 62 60 57 58 60 54 53 44 40 42 44 7 24 344 39 40 32 16 4 358 4 4 1 5 1 350 345 339 333 331 328 328 325 321 315 303 280 260 268 280 291 272 243 193 205 243 250 249 243 241 252 253 221 219 241 237 236 226 222 226 230
188 217 212 195 212 232 212 222 151 245 238 208 126 137 162 154 163 157 139 135 136 137 129 128 124 124 123 119 119 115 106 93 84 75 67 62 63 60 61 58 53 50 42 24 36 88 39 17 337 10 336 57 47 30 8 11 6 356 2 358 354 355 343 341 341 342 340 328 320 319 317 314 316 306 285 257 280 301 279 260 224 237 243 249 248 260 273 269 246 224 241 245 241 232 223 227 224
219 211 192 201 182 217 214 237 199 200 217 228 132 148 156 183 127 163 151 148 149 139 136 131 133 130 122 122 117 114 98 88 82 75 70 67 64 69 62 55 58 58 35 70 50 30 45 356 10 9 28 7 48 22 8 7 14 1 5 357 352 353 353 345 348 347 342 332 327 325 324 323 318 327 305 293 257 250 262 255 230 236 246 245 250 249 254 271 278 253 246 249 257 256 238 231 234
229 210 203 211 233 221 211 191 244 219 216 238 149 183 166 175 157 171 163 154 146 140 138 135 128 128 123 119 121 108 101 88 86 82 81 82 79 69 63 58 54 46 34 30 44 43 17 25 29 4 35 11 22 19 7 7 10 14 356 360 2 352 354 354 352 348 338 335 335 333 332 334 331 312 286 290 291 283 280 271 265 246 240 247 255 255 251 247 248 253 249 248 247 251 251 240 234
202 219 201 196 231 230 243 169 207 212 225 215 139 206 125 46 134 176 164 148 141 144 140 130 128 125 121 116 110 111 101 104 100 95 94 83 76 77 65 53 55 52 47 45 34 46 34 22 23 29 13 24 28 6 14 8 14 6 2 2 4 359 358 355 353 345 338 342 337 329 325 323 321 322 319 304 303 302 302 294 271 262 265 267 250 257 261 257 249 251 247 247 261 258 250 249 237
198 212 214 205 210 214 213 216 187 216 222 219 201 168 106 58 5 41 188 143 143 137 130 126 119 115 114 111 112 113 114 109 104 101 99 88 78 69 68 69 62 55 41 48 45 44 38 35 29 29 24 26 26 10 16 14 14 6 5 3 5 4 0 356 346 345 343 339 333 324 323 326 325 320 318 313 292 300 312 304 297 289 288 274 267 265 267 263 248 242 240 241 242 250 260 254 229